Snowfall_Accumulation
0.0 0.0 0.0 0.0 0.0 0.0 0.0 0.0 0.0 0.0 0.0 0.0 0.0 0.0 0.0 0.0 0.0 0.0 0.0 0.0 0.1 0.1 0.0 0.0 0.0 0.0 0.0 0.0 0.0 0.0 0.0 0.0 0.6 0.0 0.0 0.0 0.0 0.0 0.0 0.0 0.0 0.0 0.0
0.0 0.0 0.0 0.0 0.0 0.0 0.0 0.0 0.0 0.0 0.0 0.0 0.0 0.0 0.0 0.0 0.0 0.0 0.0 0.1 0.1 0.0 0.0 0.0 0.0 0.0 0.1 0.0 0.0 0.0 0.0 0.0 0.2 0.2 0.0 0.0 0.0 0.0 0.0 0.0 0.0 0.0 0.0
0.0 0.0 0.0 0.0 0.0 0.0 0.0 0.0 0.0 0.0 0.0 0.0 0.0 0.0 0.0 0.0 0.0 0.0 0.0 0.0 0.0 0.0 0.0 0.0 0.0 0.1 0.2 0.3 0.0 0.0 0.1 0.0 0.1 0.4 0.2 0.0 0.0 0.0 0.0 0.0 0.0 0.0 0.0
0.0 0.0 0.0 0.0 0.0 0.0 0.0 0.0 0.0 0.0 0.0 0.0 0.0 0.0 0.0 0.0 0.0 0.0 0.0 0.0 0.0 0.0 0.0 0.0 0.0 0.0 0.1 0.2 0.1 0.2 0.2 0.7 0.5 0.4 0.2 0.0 0.0 0.0 0.0 0.0 0.0 0.0 0.0
0.0 0.0 0.0 0.0 0.0 0.0 0.2 0.2 0.2 0.2 0.0 0.0 0.0 0.1 0.0 0.0 0.0 0.0 0.0 0.2 0.2 0.0 0.0 0.0 0.0 0.0 nan nan 0.5 0.4 0.4 0.9 1.5 1.9 0.5 0.2 0.1 0.1 0.0 0.0 0.2 0.1 0.1
0.0 0.0 0.0 0.3 0.6 0.8 0.7 0.5 0.3 0.3 0.3 0.3 0.3 0.3 0.3 0.0 nan nan 0.0 0.2 0.3 0.0 0.0 0.0 0.0 0.0 0.0 nan nan nan nan 1.8 9.1 7.5 0.8 0.8 0.1 0.2 0.2 0.3 0.3 0.4 1.1
0.8 1.7 1.5 1.1 1.5 1.0 0.8 0.6 0.5 0.4 0.4 0.4 0.3 0.3 0.3 0.2 nan nan nan 0.4 0.4 0.0 0.0 0.0 0.0 0.0 0.0 0.0 nan nan nan nan nan 0.2 1.3 0.3 0.3 0.1 0.2 0.4 0.3 0.7 0.8
1.2 2.5 2.0 1.1 2.3 1.2 1.0 1.0 0.6 0.5 0.6 0.5 0.5 0.5 0.3 0.2 nan nan nan 0.2 0.3 0.0 0.0 0.0 0.0 0.0 0.0 0.1 0.2 1.1 0.7 0.5 0.2 0.1 0.3 0.5 0.4 0.3 0.6 1.1 1.7 2.0 1.5
0.5 0.9 1.1 1.8 2.7 1.4 3.3 1.5 1.0 1.7 1.2 2.2 2.1 3.6 2.7 2.3 nan nan 0.5 1.2 0.8 0.6 0.0 0.0 0.1 0.1 nan nan 1.9 4.5 2.5 1.1 nan nan nan nan nan nan nan 4.8 15.3 16.5 8.6
0.5 0.5 0.7 1.7 4.0 3.2 1.7 2.7 3.0 2.9 2.5 3.3 2.9 2.6 0.8 4.1 nan nan nan 4.8 5.8 3.1 1.3 0.1 0.1 0.1 nan nan 1.8 3.9 5.6 2.1 1.1 3.4 1.1 0.5 nan nan nan 0.2 4.5 16.1 8.1
1.3 1.3 1.6 1.8 4.3 2.6 3.1 2.5 3.7 4.2 2.1 3.9 3.5 2.7 3.1 1.6 1.7 nan nan 2.7 5.1 6.5 5.5 3.4 1.6 nan nan nan nan 3.9 4.3 2.5 6.9 5.8 4.7 4.1 2.2 1.4 1.6 0.9 0.5 2.1 6.5
2.1 2.4 3.0 4.9 4.4 4.4 8.1 5.0 6.8 5.9 5.8 5.3 5.6 4.6 3.8 1.5 nan nan nan nan nan 10.1 5.4 2.2 1.8 nan nan nan 2.2 nan nan 1.7 10.4 11.6 9.2 6.5 3.7 3.1 1.6 1.2 0.2 0.6 0.7
5.1 7.2 7.1 6.3 6.3 6.3 9.2 6.2 8.4 7.0 8.2 4.7 6.1 5.5 3.6 2.9 2.9 nan nan nan nan 5.6 3.8 2.4 nan nan nan nan nan nan 0.6 6.6 9.6 11.6 7.8 3.7 1.8 1.3 0.6 1.5 0.7 1.1 0.7
9.8 5.3 4.2 5.4 4.0 5.4 7.3 8.4 11.8 9.4 7.8 8.7 9.7 8.7 5.3 5.2 3.8 3.8 7.8 6.5 2.9 7.3 nan 5.4 nan 3.4 nan nan 2.7 2.7 4.1 4.5 5.3 6.4 4.6 1.9 2.0 3.1 4.1 3.2 5.1 4.4 8.3
7.0 3.9 5.4 7.6 8.4 4.9 4.4 7.5 6.4 4.3 9.2 16.2 18.9 13.9 15.1 13.9 10.1 5.2 12.0 14.2 14.3 14.2 8.6 15.8 12.7 7.4 6.5 5.3 6.4 5.9 5.2 5.7 6.4 6.4 6.6 6.4 6.0 5.6 5.7 4.6 5.1 7.2 9.5
4.1 5.8 5.6 5.6 4.9 4.3 4.3 4.1 nan nan nan nan nan 11.4 14.9 nan nan nan nan nan nan nan 22.0 24.8 12.7 9.5 6.8 6.4 7.9 7.4 6.4 5.3 5.7 7.2 8.4 7.7 7.7 7.2 7.3 7.7 7.7 9.1 10.0
7.0 4.6 6.1 4.7 5.0 5.6 5.7 6.8 7.9 4.3 nan nan nan nan nan nan nan nan nan nan nan nan 32.9 18.0 14.2 9.8 9.3 7.2 8.7 7.8 7.9 6.4 4.2 8.0 7.9 8.3 9.8 10.4 10.8 10.0 9.1 7.9 12.3
6.7 1.9 7.3 7.0 6.8 7.1 7.6 7.8 8.1 9.7 11.1 8.7 nan nan nan nan nan nan nan nan 27.6 nan 25.1 25.3 21.5 16.9 12.8 11.5 9.5 9.4 9.6 9.3 8.8 10.1 10.2 14.2 15.9 16.6 15.1 15.2 11.5 14.3 14.3
7.3 6.2 6.8 7.0 6.6 6.9 7.8 6.9 7.7 7.7 8.1 10.4 9.8 9.7 5.2 nan nan nan nan 18.7 26.1 23.1 22.9 23.7 20.0 19.0 15.5 16.3 15.4 17.4 15.2 15.9 15.3 20.1 20.2 21.5 19.1 19.6 19.8 13.5 10.2 6.2 7.4
7.8 3.2 6.0 10.4 8.8 7.8 5.7 7.7 7.1 7.4 8.4 9.8 10.4 8.9 15.7 15.7 22.7 23.7 19.5 26.6 26.5 24.1 20.8 23.4 24.4 26.7 27.2 25.3 24.6 22.9 23.1 23.6 21.4 22.4 22.5 21.2 19.3 20.0 14.1 18.3 15.2 13.1 14.3
13.5 11.6 2.4 10.2 12.6 12.8 12.9 10.3 8.1 11.3 10.1 12.2 9.4 8.9 nan 16.3 17.6 19.1 22.4 20.9 24.5 26.7 21.9 24.2 25.7 32.6 33.6 36.3 30.4 29.2 27.8 18.1 22.4 24.5 25.9 25.7 24.2 29.2 17.5 11.2 15.9 16.7 16.1
15.4 16.0 15.9 16.8 11.6 12.1 14.0 9.6 10.6 10.8 10.2 8.8 6.8 7.4 nan 9.9 12.7 13.5 15.7 21.0 25.9 25.8 29.4 34.6 34.0 36.9 32.8 30.7 28.0 26.0 22.0 25.9 27.8 26.2 21.7 23.0 26.5 22.7 21.2 14.5 14.9 12.9 16.8
12.9 11.4 12.2 12.0 11.6 5.9 13.0 15.2 13.2 12.6 11.4 12.6 11.0 11.0 13.2 17.1 14.6 14.0 21.6 24.8 20.1 19.3 21.9 23.2 21.7 21.7 20.2 23.8 21.1 20.4 22.2 25.3 26.5 33.5 24.3 24.9 24.2 27.1 23.4 20.4 17.4 18.9 17.3
11.6 11.8 11.3 15.2 13.3 10.9 13.2 14.3 12.3 5.8 12.9 14.1 23.9 18.4 10.3 14.2 21.8 16.2 17.5 21.1 17.1 29.1 20.8 22.3 18.4 18.0 19.9 29.9 37.3 36.7 39.3 41.2 39.9 37.0 33.3 23.7 23.9 19.3 19.8 21.6 16.8 14.9 13.2
14.5 12.1 12.3 11.3 18.2 14.3 13.3 16.3 11.1 16.1 19.5 14.8 18.5 13.3 14.3 13.6 15.1 22.2 20.6 16.6 18.7 17.0 14.6 14.5 15.3 16.1 16.4 17.3 24.3 30.9 30.6 4.3 20.4 4.7 29.3 21.0 25.7 26.6 25.2 20.5 18.8 15.7 12.9
11.6 12.2 12.8 13.5 13.1 14.6 15.5 15.3 16.0 12.4 16.3 17.7 16.7 16.9 14.5 14.5 14.7 17.7 16.5 16.6 13.3 13.8 14.2 15.6 15.6 13.5 12.5 14.7 15.8 6.7 4.0 3.5 24.7 4.0 23.8 19.9 23.5 22.7 22.3 22.4 20.6 18.5 14.7
Water_Equivalent
0.00 0.00 0.00 0.00 0.00 0.00 0.00 0.00 0.00 0.00 0.00 0.00 0.00 0.00 0.00 0.00 0.00 0.00 0.00 0.00 0.01 0.01 0.00 0.00 0.00 0.00 0.00 0.00 0.00 0.00 0.00 0.01 0.11 0.00 0.00 0.00 0.00 0.00 0.00 0.00 0.00 0.00 0.00
0.00 0.00 0.00 0.00 0.00 0.00 0.00 0.00 0.00 0.00 0.00 0.00 0.00 0.00 0.00 0.00 0.00 0.00 0.00 0.02 0.02 0.00 0.00 0.00 0.00 0.00 0.02 0.00 0.00 0.00 0.00 0.00 0.04 0.03 0.00 0.00 0.00 0.00 0.00 0.00 0.00 0.00 0.00
0.00 0.00 0.00 0.00 0.00 0.00 0.00 0.00 0.00 0.00 0.00 0.00 0.00 0.00 0.00 0.00 0.00 0.00 0.00 0.00 0.00 0.00 0.00 0.00 0.00 0.02 0.03 0.06 0.00 0.00 0.02 0.00 0.01 0.06 0.03 0.00 0.00 0.00 0.00 0.00 0.00 0.00 0.00
0.00 0.00 0.00 0.00 0.00 0.00 0.00 0.00 0.00 0.00 0.00 0.00 0.00 0.00 0.00 0.00 0.00 0.00 0.00 0.00 0.00 0.00 0.00 0.00 0.00 0.00 0.03 0.03 0.02 0.03 0.03 0.11 0.08 0.05 0.03 0.01 0.00 0.00 0.00 0.00 0.01 0.00 0.00
0.00 0.00 0.00 0.00 0.00 0.01 0.03 0.03 0.03 0.03 0.00 0.00 0.00 0.01 0.00 0.00 0.00 0.00 0.00 0.03 0.02 0.00 0.00 0.00 0.00 0.00 nan nan 0.09 0.06 0.06 0.14 0.24 0.27 0.06 0.02 0.01 0.01 0.01 0.00 0.04 0.02 0.02
0.00 0.00 0.00 0.04 0.09 0.11 0.10 0.07 0.04 0.04 0.04 0.04 0.04 0.04 0.04 0.00 nan nan 0.00 0.03 0.04 0.00 0.00 0.00 0.00 0.00 0.00 nan nan nan nan 0.26 0.95 0.90 0.10 0.08 0.01 0.02 0.03 0.04 0.05 0.08 0.16
0.12 0.22 0.19 0.15 0.15 0.12 0.09 0.07 0.06 0.05 0.05 0.05 0.04 0.04 0.04 0.03 nan nan nan 0.06 0.06 0.00 0.00 0.00 0.00 0.00 0.00 0.00 nan nan nan nan nan 0.03 0.14 0.04 0.03 0.01 0.02 0.05 0.04 0.13 0.14
0.16 0.28 0.21 0.13 0.24 0.12 0.10 0.10 0.06 0.05 0.06 0.05 0.06 0.06 0.04 0.03 nan nan nan 0.03 0.03 0.00 0.00 0.00 0.00 0.00 0.00 0.01 0.03 0.14 0.10 0.07 0.03 0.02 0.04 0.05 0.04 0.03 0.07 0.13 0.21 0.29 0.24
0.06 0.10 0.12 0.18 0.28 0.14 0.33 0.14 0.09 0.17 0.12 0.23 0.23 0.37 0.29 0.27 nan nan 0.07 0.15 0.10 0.08 0.01 0.01 0.01 0.01 nan nan 0.20 0.45 0.25 0.13 nan nan nan nan nan nan nan 0.74 2.03 2.19 1.14
0.06 0.05 0.07 0.17 0.41 0.32 0.16 0.26 0.30 0.29 0.25 0.35 0.30 0.28 0.10 0.43 nan nan nan 0.63 0.66 0.38 0.16 0.01 0.03 0.01 nan nan 0.21 0.39 0.56 0.21 0.12 0.37 0.14 0.08 nan nan nan 0.04 0.67 1.99 1.10
0.15 0.14 0.16 0.18 0.43 0.26 0.31 0.25 0.37 0.41 0.20 0.39 0.35 0.27 0.32 0.18 0.18 nan nan 0.34 0.61 0.75 0.65 0.40 0.21 nan nan nan nan 0.41 0.44 0.26 0.72 0.62 0.54 0.50 0.31 0.21 0.25 0.16 0.08 0.36 0.90
0.21 0.23 0.29 0.49 0.44 0.44 0.83 0.49 0.69 0.60 0.59 0.53 0.57 0.46 0.41 0.15 nan nan nan nan nan 1.18 0.58 0.26 0.22 nan nan nan 0.35 nan nan 0.34 1.20 1.31 1.07 0.76 0.45 0.38 0.22 0.18 0.04 0.10 0.12
0.51 0.73 0.72 0.63 0.63 0.64 0.96 0.62 0.85 0.70 0.84 0.46 0.62 0.56 0.36 0.31 0.33 nan nan nan nan 0.62 0.46 0.28 nan nan nan nan nan nan 0.20 0.78 1.08 1.27 0.83 0.43 0.22 0.17 0.08 0.21 0.10 0.15 0.10
1.01 0.52 0.40 0.53 0.42 0.52 0.73 0.87 1.25 0.96 0.78 0.87 0.99 0.89 0.53 0.51 0.38 0.41 0.82 0.70 0.46 0.81 nan 0.61 nan 0.37 nan nan 0.36 0.34 0.48 0.50 0.59 0.68 0.54 0.23 0.25 0.39 0.51 0.41 0.63 0.56 1.07
0.68 0.36 0.52 0.75 0.84 0.47 0.42 0.75 0.63 0.42 0.92 1.58 1.91 1.35 1.44 1.37 1.03 0.54 1.27 1.52 1.51 1.47 1.16 1.65 1.29 0.75 0.66 0.55 0.67 0.62 0.55 0.62 0.69 0.71 0.73 0.72 0.70 0.66 0.69 0.56 0.62 0.88 1.14
0.37 0.56 0.55 0.55 0.48 0.42 0.42 0.39 nan nan nan nan nan 1.18 1.58 nan nan nan nan nan nan nan 2.61 2.62 1.24 0.93 0.64 0.62 0.76 0.70 0.61 0.57 0.58 0.75 0.91 0.86 0.85 0.81 0.83 0.91 0.94 1.09 1.13
0.69 0.44 0.59 0.49 0.47 0.53 0.55 0.65 0.76 0.43 nan nan nan nan nan nan nan nan nan nan nan nan 3.72 1.85 1.42 0.94 0.86 0.63 0.79 0.70 0.70 0.60 0.38 0.77 0.77 0.84 1.03 1.14 1.23 1.13 1.05 0.88 1.40
0.65 0.61 0.70 0.66 0.64 0.67 0.73 0.75 0.79 0.95 1.09 0.87 nan nan nan nan nan nan nan nan 3.11 nan 2.75 2.70 2.21 1.70 1.20 1.05 0.84 0.80 0.82 0.82 0.78 0.93 0.96 1.44 1.70 1.79 1.66 1.72 1.31 1.68 1.68
0.70 0.59 0.66 0.67 0.64 0.67 0.75 0.65 0.74 0.73 0.77 1.02 0.97 0.99 0.85 nan nan nan nan 2.01 2.85 2.46 2.44 2.50 2.02 1.85 1.45 1.55 1.46 1.69 1.41 1.47 1.41 1.97 2.01 2.22 2.03 2.13 2.21 1.53 1.13 0.91 1.02
0.74 0.76 0.74 1.00 0.81 0.72 0.51 0.70 0.63 0.67 0.76 0.94 1.00 0.87 1.61 1.79 2.45 2.58 2.10 2.97 2.91 2.59 2.18 2.45 2.52 2.77 2.84 2.62 2.54 2.32 2.31 2.38 2.11 2.22 2.22 2.15 2.04 2.22 1.44 2.10 1.76 1.43 1.70
1.26 1.04 0.79 0.90 1.16 1.20 1.21 0.92 0.70 1.04 0.93 1.17 0.89 0.86 nan 1.62 1.78 1.99 2.39 2.17 2.60 2.88 2.29 2.56 2.67 3.53 3.71 4.09 3.30 3.12 2.90 1.74 2.25 2.49 2.67 2.66 2.55 3.24 1.91 1.14 1.82 1.99 1.91
1.38 1.46 1.46 1.55 0.99 1.04 1.26 0.81 0.92 0.95 0.89 0.76 0.58 0.69 nan 0.92 1.21 1.31 1.53 2.14 2.72 2.67 3.09 3.71 3.62 4.02 3.51 3.23 2.88 2.68 2.18 2.67 2.95 2.71 2.11 2.26 2.73 2.35 2.34 1.55 1.65 1.41 1.99
1.10 0.92 1.02 1.00 0.97 1.33 1.13 1.40 1.18 1.13 1.01 1.18 1.02 0.99 1.20 1.68 1.41 1.32 2.20 2.52 1.93 1.80 2.11 2.27 2.11 2.10 1.96 2.37 2.07 2.00 2.15 2.51 2.64 3.61 2.31 2.44 2.35 2.80 2.50 2.19 1.91 2.13 2.03
0.96 1.00 0.97 1.41 1.20 0.92 1.18 1.30 1.07 1.42 1.16 1.30 2.34 1.81 0.94 1.33 2.12 1.46 1.60 2.00 1.59 3.01 2.02 2.21 1.73 1.70 1.96 3.20 4.21 4.14 4.51 4.77 4.48 4.05 3.56 2.25 2.24 1.98 1.91 2.30 1.79 1.72 1.40
1.28 1.03 1.07 0.97 1.72 1.29 1.18 1.51 0.96 1.49 1.84 1.37 1.81 1.21 1.26 1.17 1.35 2.17 1.99 1.57 1.81 1.66 1.39 1.38 1.47 1.55 1.59 1.70 2.53 3.36 3.60 1.41 2.58 1.55 3.04 1.99 2.47 2.55 2.41 2.03 1.89 1.55 1.34
1.00 1.07 1.12 1.18 1.15 1.32 1.43 1.40 1.48 1.10 1.52 1.67 1.53 1.56 1.30 1.31 1.34 1.71 1.58 1.59 1.23 1.30 1.37 1.54 1.54 1.32 1.22 1.44 1.56 1.63 1.32 1.15 2.71 1.32 2.39 1.87 2.21 2.02 1.97 2.00 1.84 1.74 1.39
SL_Ratio
nan nan nan nan nan nan nan nan nan nan nan nan nan nan nan nan nan nan nan nan 6.0 5.9 nan nan nan nan nan nan nan nan nan 4.7 5.2 4.5 nan nan nan nan nan nan nan nan nan
nan nan nan nan nan nan nan nan nan nan nan nan nan nan nan nan nan nan 6.7 6.1 6.1 6.7 nan nan nan 4.3 6.1 nan nan nan 0.0 nan 5.3 6.6 nan nan nan nan nan nan nan nan nan
nan nan nan nan nan nan nan nan nan nan nan nan nan nan nan nan nan nan nan nan nan nan nan nan nan 6.3 6.2 5.5 nan nan 5.3 6.0 5.3 6.1 6.0 nan nan nan nan nan nan nan nan
nan nan nan nan nan nan nan nan nan nan nan nan nan nan nan nan nan nan nan nan nan nan nan nan nan nan 5.9 6.2 6.3 6.1 6.1 6.1 6.1 6.9 6.6 5.9 nan nan nan 0.0 4.2 nan nan
nan nan nan nan nan 5.7 5.9 6.2 6.3 6.4 nan nan nan 6.8 nan nan nan nan nan 6.4 6.6 nan nan nan nan nan nan nan 6.2 6.2 6.3 6.3 6.3 7.1 8.2 8.5 8.2 8.1 6.9 7.1 5.7 4.7 4.4
5.0 6.0 6.0 6.2 6.8 7.4 7.1 7.3 6.9 7.0 6.9 7.0 7.1 7.8 7.7 nan nan nan 6.0 6.7 6.7 5.5 6.0 nan nan nan nan nan nan nan nan 7.0 9.7 8.4 7.9 10.0 8.6 8.1 7.7 7.1 5.5 5.5 6.9
7.0 7.5 7.7 7.5 9.6 8.7 8.6 8.6 8.8 8.4 7.6 8.2 7.9 7.8 7.9 7.5 nan nan nan 7.2 7.1 6.7 10.0 0.0 10.0 nan 3.8 5.7 nan nan nan nan nan 6.7 8.7 8.0 9.4 8.3 8.8 8.1 6.9 5.1 5.3
7.7 8.7 9.5 9.1 9.8 9.9 9.9 9.8 9.1 8.7 9.3 9.2 8.4 8.1 8.0 7.9 nan nan nan 7.3 7.6 10.0 10.0 10.0 6.7 8.0 8.2 7.3 6.7 7.8 7.0 6.6 6.3 7.2 7.8 8.3 8.4 8.4 8.3 8.4 8.1 7.0 6.1
7.7 8.4 9.3 9.8 9.8 10.1 10.0 10.5 10.6 10.1 9.9 9.9 9.3 9.7 9.2 8.6 nan nan 7.6 7.8 8.1 8.0 7.1 7.1 7.2 7.3 nan nan 9.5 10.0 9.8 8.4 nan nan nan nan nan nan nan 6.6 7.5 7.5 7.6
8.4 8.5 9.2 10.1 9.9 10.2 10.5 10.3 10.0 9.9 9.9 9.3 9.8 9.5 7.8 9.6 nan nan nan 7.5 8.8 8.1 8.1 7.1 3.2 8.0 nan nan 8.6 10.0 10.2 9.9 9.4 9.2 7.6 6.3 nan nan nan 5.4 6.8 8.1 7.4
8.5 9.3 10.1 10.4 10.0 10.2 10.1 10.0 10.0 10.0 10.2 10.0 10.0 10.0 9.9 9.0 9.3 nan nan 7.9 8.3 8.6 8.6 8.4 7.9 nan nan nan nan 9.6 9.8 9.5 9.6 9.3 8.8 8.3 7.3 6.9 6.2 5.8 6.0 5.9 7.3
10.1 10.2 10.3 10.1 10.0 10.0 9.8 10.1 9.9 9.9 9.9 10.0 9.9 10.0 9.4 9.8 nan nan nan nan nan 8.6 9.3 8.4 8.3 nan nan nan 6.4 nan nan 5.0 8.7 8.8 8.6 8.6 8.3 8.1 7.3 6.5 6.2 5.7 5.6
10.0 9.9 9.9 10.0 10.0 9.9 9.7 10.1 9.9 9.9 9.7 10.0 9.8 9.8 9.9 9.3 8.9 nan nan nan nan 9.0 8.3 8.5 nan nan nan nan nan nan 3.0 8.4 8.9 9.1 9.3 8.7 8.4 7.7 7.2 7.4 7.0 7.1 7.1
9.7 10.1 10.5 10.3 9.6 10.4 9.9 9.8 9.5 9.8 10.0 9.9 9.8 9.8 10.0 10.2 9.9 9.3 9.5 9.2 6.2 9.0 nan 8.8 nan 9.3 nan nan 7.4 8.1 8.6 8.9 9.0 9.4 8.7 8.3 8.1 8.1 8.1 7.9 8.0 8.0 7.8
10.3 10.9 10.5 10.1 10.0 10.4 10.3 10.0 10.1 10.2 10.0 10.3 9.9 10.3 10.5 10.1 9.8 9.7 9.4 9.4 9.5 9.7 7.5 9.6 9.9 9.8 9.9 9.7 9.6 9.5 9.4 9.3 9.3 8.9 9.0 8.8 8.5 8.4 8.2 8.2 8.2 8.2 8.4
11.1 10.5 10.3 10.1 10.2 10.2 10.2 10.5 nan nan nan nan nan 9.7 9.4 nan nan nan nan nan nan nan 8.5 9.4 10.2 10.2 10.6 10.4 10.4 10.6 10.4 9.3 9.8 9.5 9.3 9.0 9.1 8.8 8.8 8.5 8.2 8.3 8.9
10.2 10.5 10.3 9.7 10.7 10.5 10.4 10.4 10.4 10.2 nan nan nan nan nan nan nan nan nan nan nan nan 8.8 9.7 10.0 10.5 10.7 11.3 11.0 11.2 11.4 10.7 11.1 10.5 10.3 9.9 9.5 9.1 8.8 8.8 8.7 8.9 8.8
10.3 3.0 10.4 10.6 10.6 10.6 10.4 10.4 10.2 10.3 10.2 10.1 nan nan nan nan nan nan nan nan 8.9 nan 9.1 9.4 9.7 10.0 10.6 11.0 11.3 11.7 11.6 11.4 11.3 10.9 10.7 9.8 9.4 9.3 9.1 8.8 8.8 8.5 8.5
10.4 10.5 10.4 10.4 10.4 10.2 10.3 10.6 10.4 10.6 10.5 10.2 10.1 9.9 6.1 nan nan nan nan 9.3 9.2 9.4 9.4 9.5 9.9 10.3 10.7 10.5 10.6 10.3 10.8 10.8 10.8 10.2 10.1 9.7 9.4 9.2 9.0 8.8 9.0 6.8 7.2
10.5 4.2 8.1 10.4 10.8 10.9 11.1 11.0 11.2 11.0 11.0 10.5 10.3 10.2 9.7 8.7 9.3 9.2 9.3 9.0 9.1 9.3 9.5 9.6 9.7 9.6 9.6 9.7 9.7 9.9 10.0 9.9 10.2 10.1 10.1 9.9 9.5 9.0 9.8 8.7 8.6 9.1 8.4
10.8 11.1 3.0 11.4 10.8 10.7 10.6 11.2 11.5 10.8 10.8 10.4 10.5 10.3 nan 10.1 9.8 9.6 9.4 9.6 9.4 9.3 9.6 9.5 9.6 9.2 9.1 8.9 9.2 9.4 9.6 10.4 9.9 9.8 9.7 9.6 9.5 9.0 9.1 9.7 8.7 8.4 8.4
11.1 10.9 10.9 10.9 11.7 11.7 11.1 11.8 11.5 11.4 11.4 11.6 11.8 10.8 nan 10.8 10.5 10.3 10.3 9.8 9.5 9.7 9.5 9.3 9.4 9.2 9.3 9.5 9.8 9.7 10.1 9.7 9.4 9.7 10.3 10.2 9.7 9.7 9.1 9.4 9.1 9.2 8.4
11.7 12.4 12.0 12.0 12.0 4.5 11.5 10.9 11.2 11.1 11.3 10.7 10.7 11.1 11.0 10.1 10.4 10.6 9.8 9.9 10.4 10.7 10.4 10.2 10.3 10.3 10.3 10.1 10.2 10.2 10.3 10.1 10.0 9.3 10.5 10.2 10.3 9.7 9.3 9.3 9.1 8.9 8.5
12.1 11.8 11.7 10.8 11.1 11.8 11.2 11.0 11.5 4.1 11.1 10.8 10.3 10.2 10.9 10.6 10.3 11.1 11.0 10.6 10.8 9.7 10.3 10.1 10.6 10.6 10.2 9.3 8.9 8.9 8.7 8.6 8.9 9.1 9.4 10.6 10.6 9.7 10.4 9.4 9.4 8.7 9.4
11.3 11.7 11.5 11.6 10.6 11.1 11.3 10.8 11.6 10.8 10.6 10.8 10.2 11.0 11.4 11.7 11.2 10.2 10.3 10.6 10.3 10.3 10.5 10.5 10.4 10.4 10.3 10.1 9.6 9.2 8.5 3.0 7.9 3.0 9.6 10.6 10.4 10.4 10.5 10.1 9.9 10.1 9.7
11.6 11.5 11.4 11.4 11.4 11.1 10.9 10.9 10.8 11.2 10.7 10.6 10.9 10.8 11.1 11.1 10.9 10.3 10.5 10.5 10.7 10.6 10.3 10.1 10.2 10.2 10.2 10.2 10.2 4.1 3.0 3.0 9.1 3.0 9.9 10.7 10.6 11.3 11.3 11.2 11.2 10.6 10.6